User: anonymous   Login
Location: Unspecified
(0.0000°N, 0.0000°E)
Time: 18:35:00
(UTC+00:00)
Language:

KANOPUS-V 4 - Orbit

View from above orbital plane
View from above orbital plane
View from above satellite
View from above satellite

Ground track
Ground track

The orbit data is extracted from the following two-line orbital elements,

1 43181U 18014B   18197.02482219  .00000149  00000-0  10353-4 0  9995
2 43181  97.4581 105.0870 0001823  82.2637  46.4929 15.18871704 25043
Epoch (UTC): 16 July 2018 00:35:44
Eccentricity: 0.0001823
inclination: 97.4581°
perigee height: 508 km
apogee height: 510 km
right ascension of ascending node: 105.0870°
argument of perigee: 82.2637°
revolutions per day: 15.18871704
mean anomaly at epoch: 46.4929°
orbit number at epoch: 2504

The dashed part of the orbit path shows where the satellite is in the earth's shadow,  

DLR